Marysville, MI

3:58 AM EDT on September 27, 2016 (GMT -0400)
Saint Clair County International

Weather History for KPHN - December, 2013

Change the Weather History Date:

Sunday, December 8, 2013

  Actual Average (KMTC) Record (KMTC)
Temperature  
Mean Temperature 17 °F -  
Max Temperature 26 °F 38 °F 64 °F (1966)
Min Temperature 8 °F 25 °F 6 °F (2005)
Degree Days  
Heating Degree Days 48    
Moisture  
Dew Point 12 °F    
Average Humidity 75    
Maximum Humidity 92    
Minimum Humidity 54    
Precipitation  
Precipitation 0.00 in - - ()
Sea Level Pressure  
Sea Level Pressure 30.38 in    
Wind  
Wind Speed 3 mph (ENE)    
Max Wind Speed 17 mph    
Max Gust Speed 22 mph    
Visibility 10 miles    
Events Snow    
Averages and records for this station are not official NWS values.
T = Trace of Precipitation, MM = Missing Value Source: NWS Daily Summary

Daily Weather History Graph

Daily Weather History Graph

Search for Another Location

Airport or City:

Trip Planner

Search our weather history database for the weather conditions in past years. The results will help you decide how hot, cold, wet, or windy it might be!

Date:

Astronomy

Dec. 08, 2013 Rise Set
Actual Time 7:48 AM EST 4:55 PM EST
Civil Twilight 7:16 AM EST 5:27 PM EST
Nautical Twilight 6:40 AM EST 6:03 PM EST
Astronomical Twilight 6:06 AM EST 6:37 PM EST
Moon 12:01 PM EST (12/8) 11:51 PM EST (12/8)
Length of Visible Light 10h 11m
Length of Day
9h 07m
Waxing Crescent, 40% of the Moon is Illuminated
Dec 8
Waxing Crescent
Dec 9
First Quarter
Dec 17
Full
Dec 25
Last Quarter
Jan 1
New

Hourly Weather History & Observations

Time (EST) Temp. Windchill Dew Point Humidity Pressure Visibility Wind Dir Wind Speed Gust Speed Precip Events Conditions
12:17 AM 8.6 °F - 6.8 °F 92% 30.57 in 10.0 mi Calm Calm - N/A   Clear
12:37 AM 8.6 °F - 5.0 °F 85% 30.57 in 10.0 mi Calm Calm - N/A   Clear
12:57 AM 8.6 °F - 5.0 °F 85% 30.56 in 10.0 mi Calm Calm - N/A   Clear
1:17 AM 8.6 °F - 5.0 °F 85% 30.56 in 10.0 mi Calm Calm - N/A   Clear
1:37 AM 8.6 °F - 5.0 °F 85% 30.55 in 10.0 mi Calm Calm - N/A   Clear
1:57 AM 8.6 °F - 5.0 °F 85% 30.55 in 10.0 mi Calm Calm - N/A   Clear
2:17 AM 8.6 °F - 5.0 °F 85% 30.55 in 10.0 mi Calm Calm - N/A   Clear
2:37 AM 8.6 °F - 5.0 °F 85% 30.56 in 10.0 mi Calm Calm - N/A   Clear
2:57 AM 8.6 °F - 6.8 °F 92% 30.57 in 10.0 mi Calm Calm - N/A   Clear
3:17 AM 8.6 °F - 6.8 °F 92% 30.57 in 10.0 mi Calm Calm - N/A   Clear
3:37 AM 8.6 °F - 6.8 °F 92% 30.56 in 10.0 mi Calm Calm - N/A   Clear
3:57 AM 8.6 °F - 5.0 °F 85% 30.56 in 10.0 mi Calm Calm - N/A   Clear
4:17 AM 10.4 °F - 6.8 °F 85% 30.56 in 10.0 mi Calm Calm - N/A   Clear
4:37 AM 10.4 °F - 6.8 °F 85% 30.55 in 10.0 mi Calm Calm - N/A   Clear
4:57 AM 10.4 °F - 6.8 °F 85% 30.55 in 10.0 mi Calm Calm - N/A   Clear
5:17 AM 10.4 °F - 6.8 °F 85% 30.55 in 10.0 mi Calm Calm - N/A   Clear
5:37 AM 10.4 °F - 6.8 °F 85% 30.54 in 10.0 mi Calm Calm - N/A   Clear
5:57 AM 10.4 °F - 6.8 °F 85% 30.54 in 10.0 mi Calm Calm - N/A   Clear
6:17 AM 10.4 °F - 8.6 °F 92% 30.53 in 10.0 mi Calm Calm - N/A   Clear
6:37 AM 10.4 °F 4.0 °F 8.6 °F 92% 30.55 in 10.0 mi NW 3.5 mph - N/A   Clear
6:57 AM 10.4 °F - 6.8 °F 85% 30.54 in 10.0 mi Calm Calm - N/A   Clear
7:17 AM 10.4 °F - 6.8 °F 85% 30.54 in 10.0 mi Calm Calm - N/A   Clear
7:37 AM 10.4 °F 4.0 °F 6.8 °F 85% 30.54 in 10.0 mi North 3.5 mph - N/A   Clear
7:57 AM 12.2 °F 6.1 °F 6.8 °F 79% 30.53 in 10.0 mi North 3.5 mph - N/A   Clear
8:17 AM 12.2 °F - 6.8 °F 79% 30.53 in 10.0 mi Calm Calm - N/A   Clear
8:37 AM 12.2 °F - 6.8 °F 79% 30.52 in 10.0 mi Calm Calm - N/A   Clear
8:57 AM 14.0 °F 6.5 °F 8.6 °F 79% 30.52 in 10.0 mi NNW 4.6 mph - N/A   Clear
9:17 AM 14.0 °F 8.2 °F 8.6 °F 79% 30.50 in 10.0 mi North 3.5 mph - N/A   Clear
9:37 AM 15.8 °F - 8.6 °F 73% 30.51 in 10.0 mi Calm Calm - N/A   Clear
9:57 AM 17.6 °F - 10.4 °F 73% 30.51 in 10.0 mi Calm Calm - N/A   Clear
10:17 AM 17.6 °F - 10.4 °F 73% 30.51 in 10.0 mi Calm Calm - N/A   Clear
10:37 AM 19.4 °F - 12.2 °F 74% 30.50 in 10.0 mi Calm Calm - N/A   Clear
10:57 AM 19.4 °F 14.3 °F 12.2 °F 74% 30.48 in 10.0 mi ENE 3.5 mph - N/A   Clear
11:17 AM 21.2 °F 14.9 °F 14.0 °F 74% 30.48 in 10.0 mi East 4.6 mph - N/A   Scattered Clouds
11:37 AM 23.0 °F 14.7 °F 14.0 °F 68% 30.47 in 10.0 mi East 6.9 mph - N/A   Scattered Clouds
11:57 AM 23.0 °F 15.8 °F 12.2 °F 63% 30.45 in 10.0 mi East 5.8 mph - N/A   Scattered Clouds
12:17 PM 23.0 °F 14.7 °F 12.2 °F 63% 30.43 in 10.0 mi NE 6.9 mph - N/A   Scattered Clouds
12:37 PM 24.8 °F 16.9 °F 12.2 °F 59% 30.42 in 10.0 mi NE 6.9 mph - N/A   Mostly Cloudy
12:57 PM 24.8 °F 17.9 °F 12.2 °F 59% 30.41 in 10.0 mi ENE 5.8 mph - N/A   Overcast
1:17 PM 24.8 °F 19.1 °F 10.4 °F 54% 30.40 in 10.0 mi ENE 4.6 mph - N/A   Overcast
1:37 PM 24.8 °F 16.9 °F 12.2 °F 59% 30.38 in 10.0 mi East 6.9 mph - N/A   Overcast
1:57 PM 24.8 °F 20.5 °F 12.2 °F 59% 30.37 in 10.0 mi ENE 3.5 mph - N/A   Overcast
2:17 PM 24.8 °F 20.5 °F 12.2 °F 59% 30.36 in 10.0 mi ENE 3.5 mph - N/A   Overcast
2:37 PM 26.6 °F 21.2 °F 12.2 °F 55% 30.35 in 10.0 mi NE 4.6 mph - N/A   Overcast
2:57 PM 26.6 °F 19.1 °F 14.0 °F 59% 30.34 in 10.0 mi East 6.9 mph - N/A   Overcast
3:17 PM 26.6 °F 18.2 °F 14.0 °F 59% 30.32 in 10.0 mi ENE 8.1 mph - N/A   Overcast
3:37 PM 26.6 °F 16.8 °F 14.0 °F 59% 30.32 in 10.0 mi East 10.4 mph - N/A   Overcast
3:57 PM 26.6 °F 17.5 °F 14.0 °F 59% 30.31 in 10.0 mi East 9.2 mph - N/A   Overcast
4:17 PM 26.6 °F 16.2 °F 15.8 °F 64% 30.30 in 10.0 mi East 11.5 mph - N/A   Overcast
4:37 PM 26.6 °F 16.8 °F 15.8 °F 64% 30.28 in 10.0 mi East 10.4 mph - N/A Snow Light Snow
4:57 PM 26.6 °F 16.8 °F 17.6 °F 69% 30.26 in 7.0 mi East 10.4 mph - N/A Snow Light Snow
5:17 PM 26.6 °F 18.2 °F 17.6 °F 69% 30.26 in 10.0 mi East 8.1 mph 16.1 mph N/A   Overcast
5:37 PM 26.6 °F 15.7 °F 17.6 °F 69% 30.24 in 10.0 mi East 12.7 mph 17.3 mph N/A Snow Light Snow
5:57 PM 26.6 °F 15.2 °F 19.4 °F 74% 30.23 in 10.0 mi East 13.8 mph 17.3 mph N/A Snow Light Snow
6:17 PM 26.6 °F 15.2 °F 19.4 °F 74% 30.22 in 10.0 mi East 13.8 mph 20.7 mph N/A Snow Light Snow
6:37 PM 26.6 °F 15.7 °F 19.4 °F 74% 30.22 in 10.0 mi East 12.7 mph - N/A   Overcast
6:57 PM 26.6 °F 18.2 °F 19.4 °F 74% 30.22 in 10.0 mi East 8.1 mph 16.1 mph N/A Snow Light Snow
7:17 PM 26.6 °F 14.7 °F 19.4 °F 74% 30.21 in 7.0 mi East 15.0 mph 20.7 mph N/A Snow Light Snow
7:37 PM 26.6 °F 13.8 °F 19.4 °F 74% 30.19 in 7.0 mi East 17.3 mph 20.7 mph N/A Snow Light Snow
7:57 PM 26.6 °F 14.7 °F 19.4 °F 74% 30.17 in 7.0 mi East 15.0 mph 21.9 mph N/A Snow Light Snow
8:17 PM 26.6 °F 14.7 °F 19.4 °F 74% 30.16 in 10.0 mi East 15.0 mph 19.6 mph N/A   Overcast
8:37 PM 26.6 °F 16.2 °F 19.4 °F 74% 30.14 in 10.0 mi East 11.5 mph 19.6 mph N/A   Overcast
8:57 PM 26.6 °F 17.5 °F 19.4 °F 74% 30.14 in 10.0 mi East 9.2 mph 17.3 mph N/A   Overcast
9:17 PM 26.6 °F 16.2 °F 17.6 °F 69% 30.12 in 10.0 mi East 11.5 mph 21.9 mph N/A   Overcast
9:37 PM 26.6 °F 16.8 °F 19.4 °F 74% 30.10 in 10.0 mi East 10.4 mph 21.9 mph N/A   Overcast
9:57 PM 26.6 °F 15.2 °F 19.4 °F 74% 30.09 in 10.0 mi East 13.8 mph 21.9 mph N/A   Overcast
10:17 PM 26.6 °F 15.2 °F 19.4 °F 74% 30.07 in 10.0 mi East 13.8 mph 19.6 mph N/A   Overcast
10:37 PM 26.6 °F 15.2 °F 19.4 °F 74% 30.06 in 10.0 mi East 13.8 mph - N/A Snow Light Snow
10:57 PM 26.6 °F 15.7 °F 19.4 °F 74% 30.05 in 7.0 mi ESE 12.7 mph - N/A Snow Light Snow
11:17 PM 26.6 °F 15.2 °F 19.4 °F 74% 30.03 in 10.0 mi ESE 13.8 mph 19.6 mph N/A   Overcast
11:37 PM 26.6 °F 17.5 °F 19.4 °F 74% 30.02 in 10.0 mi ESE 9.2 mph - N/A   Overcast
11:57 PM 26.6 °F 20.0 °F 21.2 °F 80% 30.02 in 10.0 mi ESE 5.8 mph - N/A   Overcast